Hourly Data Report for September 27, 2017

All times are specified in Local Standard Time (LST). Add 1 hour to adjust for Daylight Saving Time where and when it is observed.

PENTICTON A
BRITISH COLUMBIA

49°27'45.000" N
119°36'08.000" W
344.40 m
1126146
71889
YYF

Download Data

Hourly Data (September 2017)
Hourly Data Report for September 27, 2017
Temp Definition
°C
Dew Point Temp Definition
°C
Rel Hum Definition
%
Wind Dir Definition
10's deg

Wind Spd Definition
km/h
Visibility Definition
km
Stn Press Definition
kPa
Hmdx Definition


Wind Chill Definition


Weather Definition


TIME
00:00 Legend Double Dagger 10.2 5.0 70 34 8 24.1 98.21     LegendNANA
01:00 Legend Double Dagger 10.1 5.2 72 36 14 24.1 98.24     Mainly Clear
02:00 Legend Double Dagger 9.0 4.7 74 34 13 24.1 98.27     LegendNANA
03:00 Legend Double Dagger 7.6 4.1 78 36 2 24.1 98.29     LegendNANA
04:00 Legend Double Dagger 6.3 3.4 82 36 8 24.1 98.31     Clear
05:00 Legend Double Dagger 7.4 4.7 83 36 8 24.1 98.32     LegendNANA
06:00 Legend Double Dagger 4.9 3.5 91 1 5 24.1 98.36     LegendNANA
07:00 Legend Double Dagger 9.7 6.2 79 1 10 24.1 98.38     Mainly Clear
08:00 Legend Double Dagger 14.1 7.8 65 36 13 24.1 98.37     LegendNANA
09:00 Legend Double Dagger 15.7 7.7 58 36 11 24.1 98.36     LegendNANA
10:00 Legend Double Dagger 16.8 7.5 54 34 15 24.1 98.32     Mainly Clear
11:00 Legend Double Dagger 18.5 7.9 50 36 10 24.1 98.27     LegendNANA
12:00 Legend Double Dagger 19.6 8.0 47 36 15 24.1 98.20     LegendNANA
13:00 Legend Double Dagger 20.9 8.2 43 1 9 24.1 98.12     Mainly Clear
14:00 Legend Double Dagger 21.9 8.4 42 35 11 24.1 98.03     LegendNANA
15:00 Legend Double Dagger 21.2 8.5 44 35 15 24.1 97.95     LegendNANA
16:00 Legend Double Dagger 21.1 9.1 46 34 11 24.1 97.87     Mainly Clear
17:00 Legend Double Dagger 19.0 8.0 48 33 7 24.1 97.87     LegendNANA
18:00 Legend Double Dagger 15.4 7.5 59 0 1 24.1 97.87     LegendNANA
19:00 Legend Double Dagger 12.2 6.5 68 32 4 24.1 97.90     Mainly Clear
20:00 Legend Double Dagger 12.6 6.4 66 36 2 24.1 97.91     LegendNANA
21:00 Legend Double Dagger 9.7 5.9 77 36 2 24.1 97.94     LegendNANA
22:00 Legend Double Dagger 10.7 6.7 76 2 4 24.1 97.97     Clear
23:00 Legend Double Dagger 8.8 5.3 79 2 3 24.1 98.01     LegendNANA

Notes on Data Quality.

Legend

  • E = Estimated
  • M = Missing
  • NA = Not Available
  • ‡ = Partner data that is not subject to review by the National Climate Archives
Date modified: